Regional Weather Roundup
Issued by NWS

Home | Current Version | Previous Version | Graphics & Text | Print | Product List | Glossary On
Versions: 1 2 3 4 5 6 7 8 9 10 11 12 13 14 15 16 17 18 19 20 21 22 23 24 25 26 27 28 29 30 31 32 33 34 35 36 37 38 39 40 41 42 43 44 45 46 47 48 49 50
000
ASUS43 KIND 251009
RWRIN

WEATHER ROUNDUP FOR INDIANA
NATIONAL WEATHER SERVICE INDIANAPOLIS IN
600 AM EDT THU MAY 25 2017

NOTE: "FAIR" INDICATES FEW OR NO CLOUDS BELOW 12,000 FEET WITH NO
SIGNIFICANT WEATHER AND/OR OBSTRUCTIONS TO VISIBILITY.

* - STATION DOES NOT REPORT WEATHER SUCH AS PRECIPITATION OR FOG.

+ - STATION NOT QUALITY CONTROLLED BY THE NATIONAL WEATHER SERVICE.
    USE DATA WITH CAUTION...ESPECIALLY DEWPOINT AND RELATIVE
    HUMIDITY OBSERVATIONS.

INZ001>003-010>013-019-020-251100-
NORTHWEST INDIANA

CITY           SKY/WX    TMP DP  RH WIND       PRES   REMARKS
GARY /AIRPORT/ CLOUDY    52  50  93 NW17G29   29.53R
KNOX *+        CLOUDY    54  54 100 NW12      29.46S
LA PORTE +     CLOUDY    53  53  98 N10       29.49R FOG
MICHIGAN CITY+ CLOUDY    52  52 100 N8        29.50R
MONTICELLO +   DRIZZLE   53  51  95 N14       29.45R
RENSSELAER +   CLOUDY    54  50  87 NW7       29.49R
VALPARAISO     CLOUDY    52  50  93 N8        29.50R

$$

LMZ046-743>745-251100-
SOUTHERN LAKE MICHIGAN

STATION/POSITION TIME  TEMP    WIND        PRES    WAVE
                       AIR SEA DIR/SP/G            HT
                 (UTC) (F)     (DEG/KT/KT) (MB)    (FT)
BURNS HARBOR     0940   51     340/ 18/ 23 1000.0R
MICHIGAN CITY    0940   51     330/ 18/ 20   N/A
5NW MICH CITY    1000   49 51  340/ 17/ 21   N/A     6

$$

INZ004-005-014>016-021>024-251100-
NORTH CENTRAL INDIANA

CITY           SKY/WX    TMP DP  RH WIND       PRES   REMARKS
GOSHEN         CLOUDY    58  55  90 N15       29.44R
LOGANSPORT +   LGT RAIN  55  54  94 NW10      29.43R
PERU/GRISSOM   DRIZZLE   59  59 100 N12       29.40R
ROCHESTER +    CLOUDY   N/A N/A N/A N10G16    29.43R
SOUTH BEND     CLOUDY    56  56 100 N13       29.47R
WARSAW +       RAIN      57  57 100 N9        29.43R

$$

INZ006>009-017-018-025>027-251100-
NORTHEAST INDIANA

CITY           SKY/WX    TMP DP  RH WIND       PRES   REMARKS
ANGOLA *+      CLOUDY    57  46  67 NE9       29.43R
AUBURN +       CLOUDY    59  55  88 NE9       29.41S FOG
FORT WAYNE     CLOUDY    60  58  92 NE13      29.39R FOG
HUNTINGTON +   LGT RAIN  58  57  96 N6        29.38S
KENDALLVILLE + CLOUDY    59  59 100 N6        29.42

$$

INZ028-029-035-036-043>045-051>053-251100-
WEST CENTRAL INDIANA

CITY           SKY/WX    TMP DP  RH WIND       PRES   REMARKS
CRAWFORDSVL +  CLOUDY    53  53 100 NW15      29.46R FOG
GREENCASTLE +  CLOUDY    54  54 100 NW7       29.46R FOG
LAFAYETTE      CLOUDY    54  54 100 NW12      29.46R FOG
TERRE HAUTE    CLOUDY    56  53  90 NW12      29.50R

$$

INZ030>032-037>040-046>048-054>057-064-065-251100-
CENTRAL INDIANA

CITY           SKY/WX    TMP DP  RH WIND       PRES   REMARKS
CP ATTERBURY + RAIN      55  54  94 W13G18    29.41R
FISHERS *+     CLOUDY    54  54 100 NW12G17   29.40R
FRANKFORT +    RAIN      56  55  95 NW15G21   29.45R
GREENWOOD *+   CLOUDY    56  54  93 NW12G17   29.40S
INDIANAPOLIS   LGT RAIN  56  54  93 NW17      29.41R
-EAGLE CREEK   LGT RAIN  56  54  93 NW15G26   29.40R FOG
KOKOMO +       LGT RAIN  59  57  93 N14       29.41R
MARION +       CLOUDY    57  57 100 N12       29.39R
MT COMFORT *+  CLOUDY    55  55 100 NW14G21   29.39R
SHELBYVILLE    RAIN      57  54  89 W14G22    29.37S FOG
ZIONSVILLE +   RAIN      54  54  98 NW13G20   29.42R

$$

INZ033-034-041-042-049-050-058-059-251100-
EAST CENTRAL INDIANA

CITY           SKY/WX    TMP DP  RH WIND       PRES   REMARKS
MUNCIE         CLOUDY    58  56  93 N7        29.37R

$$

INZ060-061-067>069-081>083-085>088-251100-
SOUTHWEST INDIANA

CITY           SKY/WX    TMP DP  RH WIND       PRES   REMARKS
EVANSVILLE     CLOUDY    59  55  87 W9        29.55R
HUNTINGBURG *+ CLOUDY    57  55  94 W10       29.52R
WASHINGTON +   CLOUDY    58  55  89 NW9       29.51R

$$

INZ062-063-066-070>080-084-089>092-251100-
SOUTH CENTRAL AND SOUTHEAST INDIANA

CITY           SKY/WX    TMP DP  RH WIND       PRES   REMARKS
BEDFORD +      CLOUDY    55  54  94 W8        29.46S FOG
BLOOMINGTON    LGT RAIN  56  53  90 W10       29.46R
MADISON *+     CLOUDY    55  55 100 W8        29.45S
NORTH VERNON + HVY RAIN  55  54  94 W10       29.41F
SEYMOUR +      RAIN      59  57  94 W14G20    29.43S

$$





USA.gov is the U.S. government's official web portal to all federal, state and local government web resources and services.